Location: Bottom School (historical)
(37.9078°N, 89.3593°W)
Time: 20:56:31
(UTC+00:00)

STRAND 1 - Pass Details

Date: 04 April 2023
Orbit: 767 x 779 km, 98.4° (Epoch: 30 May)

Event Time Altitude Azimuth Distance (km) Brightness Sun altitude
Rises 01:47:58 0° 358° (N) 3,245 ? -17.2°
Reaches altitude 10° 01:50:41 10° 345° (NNW) 2,313 ? -17.7°
Maximum altitude 01:54:37 23° 293° (WNW) 1,581 ? -18.4°
Drops below altitude 10° 01:58:33 10° 242° (WSW) 2,303 ? -19.1°
Sets 02:01:15 0° 229° (SW) 3,226 ? -19.6°
